Actualité

 

LogoChallengeNewsletter

Challenge du Pays Boulonnais
 
La cagnotte "Chronopale 2020" à partager entre tous les coureurs classés sur les 9 épreuves sera de 850€
Date des épreuves 2020
  1.  09/02/20 Les 6 Miles de Pont de Briques (Annulés)
  2.  08/03/20 Semi Marathon de la Terre des 2 Caps à Ferques (Sauf pour les cadets)
  3.  01/05/20 La Ronde du Fort de l'Heurt à Le Portel 10 Km (nature plage et falaise) (Annulée)
  4.  07/06/20 La Win Run à Wimereux 10 Km
  5.  28/06/20 Boulogne le 10 Km
  6.  11/10/20 Les Foulées de la Santé à Saint Martin 10 Km   
  7.  15/11/20 Les Foulées Outreloises à Outreau  10 Km            
  8.  22/11/20 Les Foulées de la Sainte Catherine à Menneville 10 Km 
  9.  05/12/20 Rues & Run Desvroises 10 Km

 

 

Nous contacter

Chronopale
59 Rue Léonce TOBO
62200 Boulogne sur mer
06 60 17 22 13
contact@chronopale.fr
www.chronopale.fr

 

16 Km

16 Km Trail de Père Noel du 14/12/19 (Reelle 16)
Rang Dossard Nom Prénom Temps Cat Rang Cat Ecart Ecart Cat Club Vitesse Km/h Temps au Km
1 14 PRUVOT Guillaume 01:03:47 M0M 1 00:00:00 00:00:00 15,051 03:59
2 43 GEDEON Edouard 01:05:21 SEM 1 00:01:34 00:00:00 14,690 04:05
3 116 VANTARD Florent 01:05:35 M0M 2 00:01:48 00:01:48 14,638 04:06
4 44 GEDEON Charles 01:05:43 SEM 2 00:01:56 00:00:22 14,608 04:06
5 131 SENECHAL Julien 01:06:51 M0M 3 00:03:04 00:03:04 14,361 04:11
6 187 ZIEGLER Thomas 01:09:34 M1M 1 00:05:47 00:00:00 13,800 04:21
7 174 LAOUT Vincent 01:10:02 M0M 4 00:06:15 00:06:15 13,708 04:23
8 240 DUBREUCQ Ludovic 01:11:22 M1M 2 00:07:35 00:01:48 13,452 04:28
9 48 EYMANN Cedric 01:12:08 M0M 5 00:08:21 00:08:21 13,309 04:31
10 250 SCHNEIDER Maxime 01:12:28 SEM 3 00:08:41 00:07:07 13,247 04:32
11 143 BACHELET Benjamin 01:12:47 SEM 4 00:09:00 00:07:26 13,190 04:33
12 47 COUPEL Christophe 01:14:05 M1M 3 00:10:18 00:04:31 12,958 04:38
13 196 BOUVIER Remi 01:14:41 SEM 5 00:10:54 00:09:20 12,854 04:40
14 15 CADREN Sebastien 01:14:53 M1M 4 00:11:06 00:05:19 12,820 04:41
15 8 CARREEL Michel 01:15:45 M1M 5 00:11:58 00:06:11 12,673 04:44
16 29 BOULANGER Michel 01:15:52 M3M 1 00:12:05 00:00:00 12,654 04:45
17 167 BERTHE Cedric 01:16:25 M2M 1 00:12:38 00:00:00 12,563 04:47
18 148 COQUET Steve 01:17:18 M0M 6 00:13:31 00:13:31 12,419 04:50
19 243 BUIGNY Olivier 01:17:31 M2M 2 00:13:44 00:01:06 12,384 04:51
20 123 THERON Remi 01:18:00 M0M 7 00:14:13 00:14:13 12,308 04:53
21 185 FLAHAUT Frederic 01:18:04 M1M 6 00:14:17 00:08:30 12,297 04:53
22 3 SOULET Vincent 01:18:06 M1M 7 00:14:19 00:08:32 12,292 04:53
23 83 COQUET Jonathan 01:19:04 M1M 8 00:15:17 00:09:30 12,142 04:57
24 188 ANDRIEUX Vincent 01:20:12 M0M 8 00:16:25 00:16:25 11,970 05:01
25 64 DEWITTE Mickael 01:20:30 M2M 3 00:16:43 00:04:05 11,925 05:02
26 137 TETU Ludovic 01:20:39 M0M 9 00:16:52 00:16:52 11,903 05:02
27 219 BELLETRE Bastien 01:20:59 ESM 1 00:17:12 00:00:00 11,854 05:04
28 73 SAINT-MAXENT David 01:21:12 SEM 6 00:17:25 00:15:51 11,823 05:05
29 107 MENET Eric 01:21:14 M3M 2 00:17:27 00:05:22 11,818 05:05
30 138 DELE Alexandre 01:22:42 M1M 9 00:18:55 00:13:08 11,608 05:10
31 7 JOURDAIN Guillaume 01:22:50 M0M 10 00:19:03 00:19:03 11,590 05:11
32 128 BERTHE Jimmy 01:23:09 SEM 7 00:19:22 00:17:48 11,545 05:12
33 112 LEGRAS Loic 01:23:49 M0M 11 00:20:02 00:20:02 11,454 05:14
34 217 ROGELET Jean 01:24:39 M1M 10 00:20:52 00:15:05 11,341 05:17
35 178 DELENCLOS Philippe 01:25:01 M3M 3 00:21:14 00:09:09 11,292 05:19
36 149 PAILLARD Aurelie 01:25:02 M1F 1 00:21:15 00:00:00 11,290 05:19
37 4 GOSLIN Frederic 01:25:03 M3M 4 00:21:16 00:09:11 11,287 05:19
38 201 MALLET Julien 01:25:08 SEM 8 00:21:21 00:19:47 11,276 05:19
39 146 VIGNON Sylvain 01:25:11 M4M 1 00:21:24 00:00:00 11,270 05:19
40 192 TELLIER Camille 01:25:18 M0M 12 00:21:31 00:21:31 11,254 05:20
41 248 LEHOUX Nicolas 01:25:22 M2M 4 00:21:35 00:08:57 11,246 05:20
42 12 COQUET Maxime 01:25:30 M3M 5 00:21:43 00:09:38 11,228 05:21
43 54 CANTRELLE Victorien 01:25:41 SEM 9 00:21:54 00:20:20 11,204 05:21
44 247 DECROIX Ludovic 01:25:50 M0M 13 00:22:03 00:22:03 11,184 05:22
45 111 FERREIRA Laurindo 01:25:58 M0M 14 00:22:11 00:22:11 11,167 05:22
46 227 COLLE David 01:26:27 M0M 15 00:22:40 00:22:40 11,105 05:24
47 245 MAGNEE Sylvain 01:26:38 M0M 16 00:22:51 00:22:51 11,081 05:25
48 236 CHUETTE Jerome 01:26:40 M3M 6 00:22:53 00:10:48 11,077 05:25
49 1 LEGRAND Benedicte 01:26:46 M2F 1 00:22:59 00:00:00 11,064 05:25
50 5 HANQUIER Giovanni 01:26:47 M1M 11 00:23:00 00:17:13 11,062 05:25
51 183 CARRIER Justine 01:27:41 ESF 1 00:23:54 00:00:00 10,948 05:29
52 184 CARRIER Olivier 01:27:42 M2M 5 00:23:55 00:11:17 10,946 05:29
53 164 SCHWAB Jerome 01:27:44 SEM 10 00:23:57 00:22:23 10,942 05:29
54 25 FRIANT Florent 01:28:11 M0M 17 00:24:24 00:24:24 10,886 05:31
55 72 WOZNIACK Mederic 01:28:14 SEM 11 00:24:27 00:22:53 10,880 05:31
56 118 PARSY Florent 01:28:15 SEM 12 00:24:28 00:22:54 10,878 05:31
57 198 TELLIER Pascal 01:28:16 M3M 7 00:24:29 00:12:24 10,876 05:31
58 228 COLIGNON Yves 01:28:18 M1M 12 00:24:31 00:18:44 10,872 05:31
59 125 DUVIVIER Wilfried 01:28:19 M1M 13 00:24:32 00:18:45 10,870 05:31
60 222 FERTEL Jerome 01:28:24 M2M 6 00:24:37 00:11:59 10,860 05:32
61 135 POIRET Corentin 01:28:42 SEM 13 00:24:55 00:23:21 10,823 05:33
62 46 HAUTBOUT Nicolas 01:28:57 M1M 14 00:25:10 00:19:23 10,793 05:34
63 162 GELLE Ludovic 01:29:04 M2M 7 00:25:17 00:12:39 10,778 05:34
64 45 RAMPINI Didier 01:29:14 M4M 2 00:25:27 00:04:03 10,758 05:35
65 186 GREGORIO Philippe 01:29:18 M3M 8 00:25:31 00:13:26 10,750 05:35
66 159 HECKMANN Johann 01:29:19 M0M 18 00:25:32 00:25:32 10,748 05:35
67 74 DELAMOTTE Marc 01:30:16 M3M 9 00:26:29 00:14:24 10,635 05:39
68 259 LANGUE Freddy 01:30:23 M2M 8 00:26:36 00:13:58 10,621 05:39
69 119 BERTHE Pascal 01:30:27 M2M 9 00:26:40 00:14:02 10,614 05:39
70 235 BEAURIN Didier 01:30:32 M3M 10 00:26:45 00:14:40 10,604 05:39
71 249 COSSART Nicolas 01:30:42 SEM 14 00:26:55 00:25:21 10,584 05:40
72 94 HERELLE Laetitia 01:30:48 M1F 2 00:27:01 00:05:46 10,573 05:40
73 10 TISON Cedric 01:31:18 M0M 19 00:27:31 00:27:31 10,515 05:42
74 126 LALLOT Cedric 01:31:28 M1M 15 00:27:41 00:21:54 10,496 05:43
75 158 MIGNON Pierre 01:31:50 M0M 20 00:28:03 00:28:03 10,454 05:44
76 67 BENOIT Rodolphe 01:31:58 M2M 10 00:28:11 00:15:33 10,439 05:45
77 26 TREFFKE Benoit 01:31:59 M1M 16 00:28:12 00:22:25 10,437 05:45
78 182 HUBERT Guillaume 01:32:08 M1M 17 00:28:21 00:22:34 10,420 05:46
79 53 CARON Mickael 01:32:11 M2M 11 00:28:24 00:15:46 10,414 05:46
80 170 TELLIER Jerome 01:32:27 M1M 18 00:28:40 00:22:53 10,384 05:47
81 177 THOREL Geoffrey 01:32:56 SEM 15 00:29:09 00:27:35 10,330 05:48
82 42 BOURGOIS Aurelien 01:33:02 M0M 21 00:29:15 00:29:15 10,319 05:49
83 161 DUCROCQ Loic 01:33:04 M1M 19 00:29:17 00:23:30 10,315 05:49
84 231 PELTIER Bertrand 01:33:26 M1M 20 00:29:39 00:23:52 10,275 05:50
85 150 SMAGUE Louis 01:33:37 ESM 2 00:29:50 00:12:38 10,255 05:51
86 163 BOUCHER Denis 01:33:40 M4M 3 00:29:53 00:08:29 10,249 05:51
87 210 VOISIN Ludovic 01:33:59 M1M 21 00:30:12 00:24:25 10,215 05:52
88 100 TERNOIS Mathieu 01:34:01 M0M 22 00:30:14 00:30:14 10,211 05:53
89 28 LAVOISIER Maxime 01:34:06 SEM 16 00:30:19 00:28:45 10,202 05:53
90 193 OUCHENE Hassan 01:34:18 M1M 22 00:30:31 00:24:44 10,180 05:54
91 206 LENOTRE Mathieu 01:34:29 M0M 23 00:30:42 00:30:42 10,161 05:54
92 117 BRIDOUX Laurent 01:34:38 M1M 23 00:30:51 00:25:04 10,144 05:55
93 134 POIRET Aymeric 01:34:56 SEM 17 00:31:09 00:29:35 10,112 05:56
94 157 BELVALETTE Marie Therese 01:35:03 M1F 3 00:31:16 00:10:01 10,100 05:56
95 213 RAMON Bertrand 01:35:05 M0M 24 00:31:18 00:31:18 10,096 05:57
96 211 VOTIEZ Arnaud 01:35:09 M1M 24 00:31:22 00:25:35 10,089 05:57
97 194 SZCZYPINSKA Anita 01:35:12 M2F 2 00:31:25 00:08:26 10,084 05:57
98 113 LUGAT Charles 01:35:24 M3M 11 00:31:37 00:19:32 10,063 05:58
99 114 DELATTRE Melanie 01:35:26 M3F 1 00:31:39 00:00:00 10,059 05:58
100 133 LARTIQUE Stephane 01:35:27 M2M 12 00:31:40 00:19:02 10,058 05:58
101 106 MARECHAL Gregory 01:35:29 M2M 13 00:31:42 00:19:04 10,054 05:58
102 61 DUBOIS Jean-Paul 01:35:34 M3M 12 00:31:47 00:19:42 10,045 05:58
103 199 SOREL Vanessa 01:36:10 M2F 3 00:32:23 00:09:24 9,983 06:01
104 41 VANDOOREN Paul 01:36:11 M1M 25 00:32:24 00:26:37 9,981 06:01
105 79 TILLIER Arnaud 01:36:35 M3M 13 00:32:48 00:20:43 9,940 06:02
106 80 BAILLIN Emmanuel 01:36:48 M3M 14 00:33:01 00:20:56 9,917 06:03
107 173 DUBOELLE Ghislain 01:36:48 M0M 25 00:33:01 00:33:01 9,917 06:03
108 81 GRENU Bernard 01:36:48 M4M 4 00:33:01 00:11:37 9,917 06:03
109 144 BATTE Nicolas 01:36:57 M1M 26 00:33:10 00:27:23 9,902 06:04
110 223 DANEZ Sabine 01:37:04 M2F 4 00:33:17 00:10:18 9,890 06:04
111 75 DEVILLERS Laurent 01:37:08 M2M 14 00:33:21 00:20:43 9,883 06:04
112 153 JOLY Yann 01:37:26 M1M 27 00:33:39 00:27:52 9,853 06:05
113 224 CALOIN Raphael 01:37:28 M1M 28 00:33:41 00:27:54 9,850 06:05
114 65 MOLINIER Eric 01:37:35 M3M 15 00:33:48 00:21:43 9,838 06:06
115 151 MOREAU Laurent 01:37:39 M2M 15 00:33:52 00:21:14 9,831 06:06
116 260 HOLLEVILLE Mickael 01:37:52 SEM 18 00:34:05 00:32:31 9,809 06:07
117 31 FROSSARD Julien 01:38:02 M0M 26 00:34:15 00:34:15 9,793 06:08
118 191 CHASSINE Marie-Celeste 01:38:02 SEF 1 00:34:15 00:00:00 9,793 06:08
119 142 FRUITIER Kevin 01:38:04 M0M 27 00:34:17 00:34:17 9,789 06:08
120 179 TETARD Emmanuel 01:38:08 M1M 29 00:34:21 00:28:34 9,783 06:08
121 212 THOMAS Celine 01:38:37 M2F 5 00:34:50 00:11:51 9,735 06:10
122 69 LEFEBVRE Nicolas 01:38:52 M1M 30 00:35:05 00:29:18 9,710 06:11
123 121 ALFRED Christophe 01:38:54 M2M 16 00:35:07 00:22:29 9,707 06:11
124 122 BOULOY Philippe 01:38:55 M3M 16 00:35:08 00:23:03 9,705 06:11
125 70 POIRIER Cedric 01:39:07 M1M 31 00:35:20 00:29:33 9,686 06:12
126 49 CAILLEUX Samuel 01:39:27 M1M 32 00:35:40 00:29:53 9,653 06:13
127 36 SCELLIER Wilfried 01:39:49 M2M 17 00:36:02 00:23:24 9,618 06:14
128 35 MARTHE Sandra 01:39:56 M2F 6 00:36:09 00:13:10 9,606 06:15
129 89 PIOLLE Nicolas 01:40:20 M0M 28 00:36:33 00:36:33 9,568 06:16
130 197 DEVOS Christophe 01:40:28 M3M 17 00:36:41 00:24:36 9,555 06:17
131 78 GARNIER Frederic 01:40:38 M4M 5 00:36:51 00:15:27 9,540 06:17
132 124 SAJOT Stephane 01:40:44 M1M 33 00:36:57 00:31:10 9,530 06:18
133 254 CREVEL David 01:40:53 M2M 18 00:37:06 00:24:28 9,516 06:18
134 136 ZJABA Helene 01:41:14 M0F 1 00:37:27 00:00:00 9,483 06:20
135 258 PILLON Anne-Sophie 01:41:32 SEF 2 00:37:45 00:03:30 9,455 06:21
136 189 BERTHE Herve 01:41:50 M0M 29 00:38:03 00:38:03 9,427 06:22
137 252 OMNES Camille 01:42:11 SEF 3 00:38:24 00:04:09 9,395 06:23
138 251 CARINCOTTE Jonathan 01:42:11 SEM 19 00:38:24 00:36:50 9,395 06:23
139 202 DELIGNIERES Emile 01:42:33 ESM 3 00:38:46 00:21:34 9,361 06:25
140 214 BEUGNET Sebastien 01:42:34 M2M 19 00:38:47 00:26:09 9,360 06:25
141 241 MALLET Emmanuel 01:42:42 M3M 18 00:38:55 00:26:50 9,348 06:25
142 166 BUCHON Sebastien 01:42:47 M2M 20 00:39:00 00:26:22 9,340 06:25
143 86 LEMAIRE Cedric 01:43:00 M1M 34 00:39:13 00:33:26 9,320 06:26
144 237 TITONE Numa 01:43:00 M0M 30 00:39:13 00:39:13 9,320 06:26
145 232 DELATTRE Benoit 01:43:44 M3M 19 00:39:57 00:27:52 9,254 06:29
146 239 BOYER Celine 01:44:29 M0F 2 00:40:42 00:03:15 9,188 06:32
147 27 TOUTAIN Juliette 01:45:03 M2F 7 00:41:16 00:18:17 9,139 06:34
148 52 CHASTAGNER Guillaume 01:45:08 M1M 35 00:41:21 00:35:34 9,131 06:34
149 220 CANDELIER Eric 01:45:08 M4M 6 00:41:21 00:19:57 9,131 06:34
150 93 DUPONT Catherine 01:45:26 M2F 8 00:41:39 00:18:40 9,105 06:35
151 209 BONVALET Valentin 01:45:30 SEM 20 00:41:43 00:40:09 9,100 06:36
152 141 SPICHER Mickael 01:45:39 M2M 21 00:41:52 00:29:14 9,087 06:36
153 205 ROUSSEL Rudy 01:45:40 SEM 21 00:41:53 00:40:19 9,085 06:36
154 140 SPICHER Sabine 01:45:43 M1F 4 00:41:56 00:20:41 9,081 06:36
155 204 CHAMBAULT Kevin 01:45:55 SEM 22 00:42:08 00:40:34 9,064 06:37
156 30 FORESTIER Isabelle 01:46:28 M3F 2 00:42:41 00:11:02 9,017 06:39
157 261 BECK Raphael 01:47:01 M3M 20 00:43:14 00:31:09 8,971 06:41
158 190 GIOANNI Sandra 01:48:00 M1F 5 00:44:13 00:22:58 8,889 06:45
159 181 BRUEZ Olivier 01:48:13 M2M 22 00:44:26 00:31:48 8,871 06:46
160 208 DOLIGER Renaud 01:48:23 M0M 31 00:44:36 00:44:36 8,857 06:46
161 97 BLONDEL Helene 01:48:51 SEF 4 00:45:04 00:10:49 8,819 06:48
162 37 BEN HADJ AZZOUZ Fabrice 01:49:01 M3M 21 00:45:14 00:33:09 8,806 06:49
163 96 BROUILLY Patricia 01:49:01 M2F 9 00:45:14 00:22:15 8,806 06:49
164 90 VADUREL Vincent 01:49:02 M2M 23 00:45:15 00:32:37 8,805 06:49
165 18 FLYGNY Catherine 01:50:13 M4F 1 00:46:26 00:00:00 8,710 06:53
166 154 BAUDRIN Fabrice 01:50:15 M3M 22 00:46:28 00:34:23 8,707 06:53
167 156 FLORET Isabelle 01:50:40 M3F 3 00:46:53 00:15:14 8,675 06:55
168 71 RACINE Yann 01:51:07 M1M 36 00:47:20 00:41:33 8,640 06:57
169 218 ROHAUT Jean-Christophe 01:51:31 M3M 23 00:47:44 00:35:39 8,609 06:58
170 203 BAUDIN Sophie 01:51:33 M1F 6 00:47:46 00:26:31 8,606 06:58
171 147 MOREL Ophelie 01:51:36 ESF 2 00:47:49 00:23:55 8,602 06:58
172 242 DUPIRE Florentin 01:51:37 SEM 23 00:47:50 00:46:16 8,601 06:59
173 246 DEBRAY Marcel 01:51:58 M7M 1 00:48:11 00:00:00 8,574 07:00
174 9 TISON Karine 01:52:12 M1F 7 00:48:25 00:27:10 8,556 07:01
175 101 FASQUELLE Elisabeth 01:52:35 M0F 3 00:48:48 00:11:21 8,527 07:02
176 19 LECONTE Delphine 01:52:43 M1F 8 00:48:56 00:27:41 8,517 07:03
177 95 DELAVAL Frederic 01:52:56 M1M 37 00:49:09 00:43:22 8,501 07:03
178 33 MARCASSIN Jerome 01:53:00 M1M 38 00:49:13 00:43:26 8,496 07:04
179 85 CRESSOT Yves 01:53:10 M2M 24 00:49:23 00:36:45 8,483 07:04
180 108 MENET Isabelle 01:53:20 M2F 10 00:49:33 00:26:34 8,471 07:05
181 132 VASSEUR Guy 01:54:05 M5M 1 00:50:18 00:00:00 8,415 07:08
182 76 DEVILLERS Ludivine 01:54:45 M1F 9 00:50:58 00:29:43 8,366 07:10
183 87 HOURIEZ Emilie 01:54:46 M0F 4 00:50:59 00:13:32 8,365 07:10
184 238 HENAUX Alice 01:54:46 M1F 10 00:50:59 00:29:44 8,365 07:10
185 23 BOULY Alexandre 01:55:26 SEM 24 00:51:39 00:50:05 8,316 07:13
186 129 CARVILLE Reynald 01:56:02 M2M 25 00:52:15 00:39:37 8,273 07:15
187 84 DAVID Caroline 01:56:37 M1F 11 00:52:50 00:31:35 8,232 07:17
188 115 DENEUX Justine 01:56:48 SEF 5 00:53:01 00:18:46 8,219 07:18
189 91 VIOLETTE Jean Pascal 01:57:28 M2M 26 00:53:41 00:41:03 8,173 07:20
190 169 VANDAMME Emmanuel 01:57:46 M3M 24 00:53:59 00:41:54 8,152 07:22
191 168 LOGEZ Christelle 01:57:47 M2F 11 00:54:00 00:31:01 8,151 07:22
192 16 COUTO Giovanni 01:58:52 M0M 32 00:55:05 00:55:05 8,076 07:26
193 226 BOULNOIS Philippe 01:59:13 M4M 7 00:55:26 00:34:02 8,053 07:27
194 262 COUSIN Antoine 01:59:18 M0M 33 00:55:31 00:55:31 8,047 07:27
195 60 ABSIL Sabine 02:00:27 M2F 12 00:56:40 00:33:41 7,970 07:32
196 103 LECUYER Rodrigue 02:00:27 M3M 25 00:56:40 00:44:35 7,970 07:32
197 109 PELOSO Sandrine 02:00:34 M4F 2 00:56:47 00:10:21 7,962 07:32
198 110 AUGRIS Aurelie 02:01:02 M0F 5 00:57:15 00:19:48 7,932 07:34
199 230 SELLIER Alexandre 02:01:16 M0M 34 00:57:29 00:57:29 7,916 07:35
200 234 LAVOINE Gilles 02:03:13 M4M 8 00:59:26 00:38:02 7,791 07:42
201 21 CONSEIL Romain 02:03:13 M0M 35 00:59:26 00:59:26 7,791 07:42
202 22 ADAM Sebastien 02:03:14 M0M 36 00:59:27 00:59:27 7,790 07:42
203 20 LAVOINE Benjamin 02:03:14 SEM 25 00:59:27 00:57:53 7,790 07:42
204 139 BRICHEUX Fabien 02:03:40 M0M 37 00:59:53 00:59:53 7,763 07:44
205 68 FIRMIN Michel 02:03:47 SEM 26 01:00:00 00:58:26 7,755 07:44
206 99 ANNE Jerome 02:05:15 M2M 27 01:01:28 00:48:50 7,665 07:50
207 34 SCELLIER Roxane 02:05:55 M1F 12 01:02:08 00:40:53 7,624 07:52
208 88 BELLEGUEULLE Aude 02:05:55 M2F 13 01:02:08 00:39:09 7,624 07:52
209 127 BULLOT Fabrice 02:05:58 M1M 39 01:02:11 00:56:24 7,621 07:52
210 229 GENJUSZ Stephanie 02:06:25 M2F 14 01:02:38 00:39:39 7,594 07:54
211 32 BOUCHER Celine 02:07:08 M1F 13 01:03:21 00:42:06 7,551 07:57
212 207 DOUCHIN Edouard 02:08:57 SEM 27 01:05:10 01:03:36 7,445 08:04
213 145 BATTE Carole 02:09:22 M1F 14 01:05:35 00:44:20 7,421 08:05
214 171 LIBESSART Maite 02:09:33 M0F 6 01:05:46 00:28:19 7,410 08:06
215 172 LIBESSART Daniel 02:09:33 M5M 2 01:05:46 00:15:28 7,410 08:06
216 175 LECAT Tony 02:09:59 M0M 38 01:06:12 01:06:12 7,386 08:07
217 176 LECAT Cedric 02:10:01 M0M 39 01:06:14 01:06:14 7,384 08:08
218 180 CHLON Karine 02:10:33 M2F 15 01:06:46 00:43:47 7,354 08:10
219 195 LEVIELLE Christine 02:10:33 M2F 16 01:06:46 00:43:47 7,354 08:10
220 256 DUVAUCHEL Pauline 02:12:41 M0F 7 01:08:54 00:31:27 7,235 08:18
221 257 PRONNIER Sophie 02:12:41 SEF 6 01:08:54 00:34:39 7,235 08:18
222 105 NOREL Pascal 02:15:36 M2M 28 01:11:49 00:59:11 7,080 08:28
223 152 MILLE Fabien 02:15:54 SEM 28 01:12:07 01:10:33 7,064 08:30
224 104 BALEDENT Mario 02:15:55 M3M 26 01:12:08 01:00:03 7,063 08:30